Tracking 29594 objects as of 20-Sep-2024
HD Live streaming from Space Station
objects crossing your sky now

FENGYUN 1C DEB

Track FENGYUN 1C DEB now!
10-day predictions


NORAD ID: 32342
Int'l Code: 1999-025CYK
Perigee: 850.4 km
Apogee: 861.6 km
Inclination: 98.7 °
Period: 101.9 minutes
Semi major axis: 7226 km
RCS: 0.023 m2 (small)
Launch date: May 10, 1999
Source: People's Republic of China (PRC)
Launch site: Taiyaun Space Center, China (TSC)

Note: This is SATELLITE DEBRIS
Your satellite tracking list
Your tracking list is empty




NASA's NSSDC Master Catalog

Two Line Element Set (TLE):
1 32342U 99025CYK 24262.99191494  .00000411  00000-0  24279-3 0  9994
2 32342  98.6901 279.1241 0007736 177.5438 212.1625 14.13082059873654
Source of the keplerian elements: AFSPC